リニア彗星

C/2008 H1 ( LINEAR )

English version
Home page
Total 6,336 html files since Dec. 4, 1995
Updated on July 27, 2008

---------------------------------------------------------------------

・ プロフィール

発見日 2008年4月18日
発見光度 18.1等
発見者 Lincoln Laboratory Near-Earth Asteroid Research project

・ 写真集

・ 軌道要素

The following orbital elements are taken from MPC 63137:

Epoch 2008 Apr. 4.0 TT = JDT 2454560.5
T 2008 Mar. 16.3852 TT                                  MPC
q   2.759950             (2000.0)            P               Q
z  +0.019626       Peri.   96.0324      -0.2280929      -0.8032263
 +/-0.000000       Node    34.6391      -0.2496739      -0.4980204
e   0.945832       Incl.   75.4895      +0.9410826      -0.3268076
From 193 observations 2008 Apr. 18-June 12, mean residual 0".7.

・ 星図

・ 光度変化

        m1 = 10.5 + 5 logΔ + 10.0 log r

---------------------------------------------------------------------

軌道要素はMPCのEphemerides and Orbital Elementsに掲載されたものです。
星図はステラナビゲータ Ver.8 (アストロアーツ) で作成したものです。
光度グラフはComet for Windowsで作成したものです。

---------------------------------------------------------------------

Copyright(C) 1995-2008 Seiichi Yoshida (comet@aerith.net). All rights reserved.